Powrót do katalogu

STARLINK-37963

AktywnyŁącznośćSSO
NORAD 69709·PAYLOAD·🇺🇸 United States

Wystrzelony Jun 28, 2026 z Vandenberg Space Force Base

Loading…

Następne Przeloty (najbliższe 24 godziny)

TLE

ŚwieżeSource: CelesTrak SupGP

Epoka: Sep 15, 2026, 03:48 UTC

1 69709C 26147F   26258.15881944 -.00060964  00000+0 -18928-2 0  2588
2 69709  97.2836 294.5520 0001092  97.7268 220.2921 15.33464427    14

Śledź STARLINK-37963 w czasie rzeczywistym z AllMySat

Download on the App Store